Regional Weather Roundup
Issued by NWS

Home | Current Version | Previous Version | Graphics & Text | Print | Product List | Glossary On
Versions: 1 2 3 4 5 6 7 8 9 10 11 12 13 14 15 16 17 18 19 20 21 22 23 24 25 26 27
000
ASUS45 KCYS 222310
RWRWY

WYOMING REGIONAL WEATHER ROUNDUP
NATIONAL WEATHER SERVICE CHEYENNE WY
400 PM MST WED FEB 22 2017

NOTE:  "FAIR" INDICATES FEW OR NO CLOUDS BELOW 12,000 FEET
WITH NO SIGNIFICANT WEATHER AND/OR OBSTRUCTIONS TO VISIBILITY.

WYZ001-230000-
YELLOWSTONE NATIONAL PARK

CITY           SKY/WX    TMP DP  RH WIND       PRES   REMARKS
LK YELLOWSTONE   N/A     27  12  53 VRB6      29.80F WCI  20
W YELLOWSTONE  NOT AVBL

$$
WYZ002>013-054>058-071-098>099-230000-
NORTHERN WYOMING

CITY           SKY/WX    TMP DP  RH WIND       PRES   REMARKS
JACKSON        FAIR      30  19  64 SW8       29.82F WCI  23
CODY           LGT RAIN  34  28  79 NE12      29.83R WCI  25
GREYBULL       FAIR      45  26  47 NW13      29.80S
WORLAND        FAIR      44  23  43 NE6       29.80F
SHERIDAN       FLURRIES  37  29  72 VRB5      29.85R WCI  33
BUFFALO        CLOUDY    34  30  85 CALM      29.85S
GILLETTE         N/A    N/A N/A N/A MISG      29.82S
HULETT         CLOUDY    36  30  80 N10       29.86R WCI  28
NEWCASTLE      FAIR      45  19  36 NW17G23   29.81S

$$
WYZ014>020-022>026-101>103-230000-
CENTRAL WYOMING

CITY           SKY/WX    TMP DP  RH WIND       PRES   REMARKS
BIG PINEY      CLOUDY    27  21  78 SE3       29.83F
PINEDALE       CLOUDY    30  14  51 CALM      29.83F
DUBOIS         FAIR      30  10  43 W13       29.77S WCI  20
LANDER         CLOUDY    40  17  39 SE7       29.77F
RIVERTON       FAIR      41   8  25 W7        29.78F
CASPER         CLOUDY    40  20  44 SW13      29.80F WCI  32
DOUGLAS        CLOUDY    45  16  31 NW12      29.81F

$$
WYZ021-027>030-104>119-230000-
SOUTHERN WYOMING

CITY           SKY/WX    TMP DP  RH WIND       PRES   REMARKS
EVANSTON       LGT SNOW  29  24  82 NE3       29.79F
KEMMERER         N/A     30  21  69 NW3       29.81F
FORT BRIDGER   FLURRIES  30  29  97 NE5       29.84F WCI  25
ROCK SPRINGS   CLOUDY    31  21  66 CALM      29.82F
DIXON            N/A     34  26  71 CALM      29.84F
RAWLINS        LGT SNOW  30  25  81 SW8       29.82F WCI  22
SARATOGA       CLOUDY    32  27  80 NW6       29.84S WCI  26
LARAMIE        LGT SNOW  30  26  85 NE8       29.80F FOG     WCI  22
CHEYENNE       CLOUDY    41  18  39 N13G24    29.79S
TORRINGTON     FAIR      50  16  25 W13       29.78S
PINE BLUFFS    FAIR      46  18  31 N18G31    29.79F

$$




USA.gov is the U.S. government's official web portal to all federal, state and local government web resources and services.